Regional Weather Roundup
Issued by NWS Sterling, VA

Home | Current Version | Previous Version | Graphics & Text | Print | Product List | Glossary On
Versions: 1 2 3 4 5 6 7 8 9 10 11 12 13 14 15 16 17 18 19 20 21 22 23 24 25 26 27
000
ASUS41 KLWX 221910
RWRLWX

REGIONAL WEATHER ROUNDUP
NATIONAL WEATHER SERVICE BALTIMORE MD/WASHINGTON DC
300 PM EDT WED OCT 22 2014

Note: "FAIR" indicates few or no clouds below 12,000 feet
with no significant weather and/or obstructions to visibility.
 TC=TEMPERATURE CELSIUS

 * =Non NWS site. Station does not report precipitation (e.g. rain,
    snow, etc.), thunder, or fog.

DCZ001-MDZ009-015-VAZ040>042-051-053>054-222000-
WASHINGTON METRO

CITY           SKY/WX    TMP DP  RH WIND       PRES   REMARKS
WASHINGTON NAT LGT RAIN  57  50  77 NW21      29.93S
DULLES         DRIZZLE   52  49  89 NW14G20   29.95F
ANDREWS AFB    RAIN      54  52  94 NW18G25   29.90S
FT BELVOIR     LGT RAIN  54  50  87 NW14G22   29.94R
QUANTICO       LGT RAIN  54  49  83 N21G29    29.95R
COLLEGE PARK*  CLOUDY    54  52  94 NW10G16   29.91F
LEESBURG*      CLOUDY    54  52  94 N17G23    29.97S
MANASSAS*      LGT RAIN  54  52  94 NW14G20   29.96S
GAITHERSBURG*  CLOUDY    52  48  87 NW7       29.98S

$$

MDZ006>007-011-014-222000-
BALTIMORE METRO

CITY           SKY/WX    TMP DP  RH WIND       PRES   REMARKS
BWI AIRPORT    LGT RAIN  54  51  90 NW12      29.90F
MD SCIENCE CTR   N/A     55  51  86 MISG      29.91S
MARTIN STATE   RAIN      55  55 100 NW14      29.90F
ANNAPOLIS      LGT RAIN  56  52  86 NW16      29.88S
FORT MEADE*    CLOUDY    52  50  93 NW8G16    29.93S

$$

MDZ012-015-019>023-222000-
MARYLAND EASTERN SHORE

CITY           SKY/WX    TMP DP  RH WIND       PRES   REMARKS
OCEAN CITY     RAIN      57  55  93 N13G20    29.74S FOG
SALISBURY      LGT RAIN  59  53  80 N14G23    29.78S
BAY BRIDGE AP* LGT RAIN  55  54  94 NW17G29   29.86F
CAMBRIDGE*     CLOUDY    55  54  94 N12G18    29.82S VSB<1/4
EASTON*        CLOUDY    57  57 100 N12G18    29.87S

$$

MDZ017>025-222000-
SOUTHERN MARYLAND

CITY           SKY/WX    TMP DP  RH WIND       PRES   REMARKS
PATUXENT RIVER LGT RAIN  55  52  89 NW24      29.84S FOG
ST INIGOES     LGT RAIN  55  50  83 NW10G28   29.83F
LEONARDTOWN*   CLOUDY    54  50  87 NW8G16    29.88R

$$

MDZ003>005-222000-
NORTH CENTRAL MARYLAND

CITY           SKY/WX    TMP DP  RH WIND       PRES   REMARKS
FREDERICK*     LGT RAIN  61  50  67 N9G20     29.99S
HAGERSTOWN APT CLOUDY    55  46  71 N15G26    29.98S
WESTMINSTER*   CLOUDY    52  48  87 N12G17    29.94F

$$

MDZ501>502-222000-
WESTERN MARYLAND

CITY           SKY/WX    TMP DP  RH WIND       PRES   REMARKS
OAKLAND*       FOG       39 N/A N/A NW7       30.09S VSB<1/4
CUMBERLAND*    PTSUNNY   54  45  71 NW14G25   30.10S

$$

VAZ025>031-222000-
SHENANDOAH VALLEY

CITY           SKY/WX    TMP DP  RH WIND       PRES   REMARKS
WINCHESTER*    RAIN      54  45  71 NW14      30.00S
FRONT ROYAL*   CLOUDY    52  46  82 NW9G20    30.00S
LURAY*         CLOUDY    54  46  76 NW13      30.02R
NEW MARKET*    CLOUDY    53  44  71 N9G17     30.03S
STAUNTON*      PTSUNNY   58  42  54 N15G26    30.03S
WAYNESBORO*    MOCLDY    57  42  58 N8G22     29.99S

$$

WVZ021-048>050-054>055-222000-
EASTERN WEST VIRGINIA PANHANDLE

CITY           SKY/WX    TMP DP  RH WIND       PRES   REMARKS
MARTINSBURG    LGT RAIN  54  46  74 NW13G21   30.00F
PETERSBURG*    CLOUDY    52  41  66 NW7       30.08S

$$

VAZ036>039-050-222000-
CENTRAL FOOTHILLS

CITY           SKY/WX    TMP DP  RH WIND       PRES   REMARKS
CHARLOTTESVILL CLOUDY    57  44  62 N16G30    29.98S
CULPEPER*      RAIN      54  50  87 NW13G20   29.98S
ORANGE*        CLOUDY    55  46  71 NW14G22   29.99R
GORDONSVILLE*  CLOUDY    56  47  72 N8        29.97S
WARRENTON*     LGT RAIN  54  54 100 NW12G21   29.96S

$$

VAZ055>057-222000-
NORTH AND CENTRAL PIEDMONT

CITY           SKY/WX    TMP DP  RH WIND       PRES   REMARKS
FREDERICKSBRG* LGT RAIN  56  53  89 NW12G25   29.93S
STAFFORD*      LGT RAIN  53  53 100 NW17G24   29.98S

$$

NCZ024-NYZ072-PAZ021-071-VAZ022-071-222000-
OTHER REGIONAL OBSERVATIONS

CITY           SKY/WX    TMP DP  RH WIND       PRES   REMARKS
NEW YORK CITY  CLOUDY    56  49  77 N15G25    29.88F
PHILADELPHIA   RAIN      55  51  86 N16       29.85F
PITTSBURGH     CLOUDY    49  41  74 N15       30.17R
ROANOKE        PTSUNNY   59  39  47 NW21G26   30.05F
RICHMOND       LGT RAIN  58  51  78 NW14G22   29.91S
RALEIGH        MOSUNNY   66  41  40 N9        29.97F

$$

ANZ530>537-222000-
MARINE OBSERVATIONS

STATION/POSITION TIME  TEMP    WIND        PRES
                       AIR SEA DIR/SP/G
                 (UTC) (F)     (DEG/KT/KT) (MB)
THOMAS PT LIGHT  1900   56 63  340/ 21/ 24 1011.9S
BALT KEY BRIDGE  1900   56     330/ 15/ 17 1012.0S
COVE POINT       1900   56     350/ 29/ 34 1010.2S
LEWISETTA        1900   56 62  340/ 17/ 28 1010.3F
SOLOMONS ISLAND  1900      65                N/A
PINEY POINT      1900          350/ 25/ 29   N/A

$$




USA.gov is the U.S. government's official web portal to all federal, state and local government web resources and services.